Location: Newark
(48.9886°N, 1.2358°E)
Time: 06:24:06
(UTC+00:00)

OTV 5 (USA 277) - Visible Passes

Search period start: 22 October 2019 00:00
Search period end: 01 November 2019 00:00
Orbit: 310 x 324 km, 54.5° (Epoch: 17 October)

Date Brightness Start Highest point End Pass type
(mag) Time Alt. Az. Time Alt. Az. Time Alt. Az.
28 Oct ? 18:38:22 10° SSW 18:38:40 12° SSW 18:38:40 12° SSW visible
29 Oct ? 18:52:25 10° SW 18:53:11 17° SW 18:53:11 17° SW visible
30 Oct ? 17:33:45 10° S 17:35:37 17° SE 17:36:39 14° ESE visible
30 Oct ? 19:06:55 10° WSW 19:07:33 15° WSW 19:07:33 15° WSW visible
31 Oct ? 17:47:26 10° SSW 17:49:58 36° SE 17:50:56 26° E visible
31 Oct ? 19:21:41 10° W 19:21:50 11° W 19:21:50 11° W visible
